Regional Weather Roundup
Issued by NWS Columbia, SC

Home | Current Version | Previous Version | Text Only | Print | Product List | Glossary On
Versions: 1 2 3 4 5 6 7 8 9 10 11 12 13 14 15 16 17 18 19 20 21 22 23 24 25 26 27 28 29 30 31 32 33 34 35 36 37 38 39 40 41 42 43 44 45 46 47 48 49 50
000
ASUS42 KCAE 271510
RWRCAE
REGIONAL WEATHER ROUNDUP
NATIONAL WEATHER SERVICE COLUMBIA SC
1100 AM EDT WED JUL 27 2016

NOTE: "FAIR" INDICATES FEW OR NO CLOUDS BELOW 12,000 FEET WITH NO
SIGNIFICANT WEATHER AND/OR OBSTRUCTIONS TO VISIBILITY.

NOT ALL STATIONS ARE QUALITY CONTROLLED BY THE NATIONAL
WEATHER SERVICE. USE DATA WITH CAUTION...ESPECIALLY
DEWPOINT OBSERVATIONS.

SCZ001>056-GAZ040-063>065-077-271600-
...UPSTATE SOUTH CAROLINA...

CITY           SKY/WX    TMP DP  RH WIND       PRES   REMARKS
ANDERSON       SUNNY     89  71  55 SW8       30.05S HX  95
LIBERTY        SUNNY     88  73  61 SW3       30.04S HX  96
SPARTANBURG    SUNNY     88  70  55 W5        30.03S
CLEMSON        SUNNY     90  70  51 W3        30.06F HX  95
GREENVILLE     SUNNY     90  68  48 W5        30.05F
GREENWOOD      SUNNY     88  72  58 SW6       30.06F
GREER          SUNNY     90  71  53 SW6       30.04S HX  96
ROCK HILL      SUNNY     90  70  51 W8        30.04S HX  95
CHESTER        SUNNY     88  70  55 SW3       30.04S
LAURENS        SUNNY     88  73  62 SW7       30.04S HX  96


...CENTRAL SOUTH CAROLINA...

CITY           SKY/WX    TMP DP  RH WIND       PRES   REMARKS
COLUMBIA APT   MOSUNNY   93  72  50 W9        30.03S HX 101
COLUMBIA OWENS SUNNY     91  72  53 NW6       30.04S HX  98
MCENTIRE ANGB  SUNNY     91  73  55 SW10      30.04S HX  99
ORANGEBURG     SUNNY     88  73  61 W10       30.05S HX  95
SUMTER SHAW    SUNNY     89  73  60 SW10      30.02R HX  97
NEWBERRY       SUNNY     88  73  62 SW7       30.07S HX  96
AIKEN          FAIR      86  72  62 W9        30.09S
MANNING        FAIR      88  73  62 SW6       30.04S HX  96
LANCASTER      SUNNY     91  70  49 W9G17     30.03S HX  97
WINNSBORO      SUNNY     88  72  58 SW3       30.04S


...EASTERN AND COASTAL SOUTH CAROLINA...

CITY           SKY/WX    TMP DP  RH WIND       PRES   REMARKS
MYRTLE BEACH   SUNNY     91  72  52 NW12      30.03F HX  98
N MYRTLE BCH   SUNNY     91  75  59 VRB5      30.01S HX 101
CONWAY         FAIR      88  75  66 W5        30.02F HAZE    HX  97
MARION           N/A     90  73  58 W9        30.02S HX  98
HARTSVILLE     FAIR      90  72  55 SW7       30.02S HX  96
FLORENCE       SUNNY     90  73  57 W8        30.02S HX  98
DARLINGTON     SUNNY     90  76  63 SW8       30.02S HX 101
CHARLESTON APT MOSUNNY   90  74  59 SW9       30.05S HX  99
MOUNT PLEASANT FAIR      90  75  62 W7        30.05R HX 100
WALTERBORO     SUNNY     90  72  55 W8        30.06S HX  96
BEAUFORT       MOSUNNY   91  73  55 NW10      30.06S HX  99


...EASTERN GEORGIA...

CITY           SKY/WX    TMP DP  RH WIND       PRES   REMARKS
AUGUSTA BUSH F SUNNY     89  72  56 SW10      30.05S HX  96
AUGUSTA DANIEL MOSUNNY   89  73  59 VRB5      30.07F HX  97
WASHINGTON     FAIR      88  73  62 W7        30.07S HX  96
CLAXTON        FAIR      89  74  62 SW9       30.08S HX  98
STATESBORO     SUNNY     88  76  67 W7        30.08S HX  98
SAVANNAH       PTSUNNY   90  72  55 W10       30.07S HX  97


...SOUTHERN NORTH CAROLINA...

CITY           SKY/WX    TMP DP  RH WIND       PRES   REMARKS
CHARLOTTE      MOSUNNY   90  71  53 CALM      30.03F HX  96
MONROE         SUNNY     91  69  48 W12       30.02S HX  96
ROCKINGHAM     SUNNY     88  76  67 W7        30.01S HX  98
RUTHERFORDTON    N/A     85  76  72 CALM      30.06S HX  95
ASHEVILLE      SUNNY     85  67  54 VRB3      30.12F

$$



USA.gov is the U.S. government's official web portal to all federal, state and local government web resources and services.